This is the latest recevied weather packets stored in our database for station/object KA1JKB. If no packets are shown the sender has not sent any weather packets the latest 10 day(s).
| Time | Temp. | Humidity | Pressure | Rain* | Wind** | Luminosity | Snow |
|---|---|---|---|---|---|---|---|
| 1777837867 | 16.67° C | 43% | 1007.6 hPa | 0 mm | - | 277 W/m² | - |
| 1777837564 | 16.11° C | 44% | 1007.5 hPa | 0 mm | - | 348 W/m² | - |
| 1777837264 | 16.11° C | 45% | 1008 hPa | 0 mm | - | 597 W/m² | - |
| 1777836961 | 16.11° C | 46% | 1008.1 hPa | 0 mm | - | 228 W/m² | - |
| 1777836656 | 16.11° C | 45% | 1008 hPa | 0 mm | - | 526 W/m² | - |
| 1777836352 | 16.67° C | 45% | 1008 hPa | 0 mm | - | 196 W/m² | - |
| 1777836048 | 16.67° C | 42% | 1007.9 hPa | 0 mm | - | 238 W/m² | - |
| 1777835745 | 16.11° C | 43% | 1008.3 hPa | 0 mm | - | 764 W/m² | - |
| 1777835442 | 16.67° C | 44% | 1008.3 hPa | 0 mm | - | 225 W/m² | - |
| 1777835139 | 16.11° C | 44% | 1008.4 hPa | 0 mm | - | 815 W/m² | - |
| 1777834836 | 16.67° C | 42% | 1008.5 hPa | 0 mm | - | 250 W/m² | - |
| 1777834533 | 16.67° C | 43% | 1008.4 hPa | 0 mm | - | 340 W/m² | - |
| 1777834232 | 16.67° C | 42% | 1008.7 hPa | 0 mm | - | 588 W/m² | - |
| 1777833929 | 17.22° C | 40% | 1008.6 hPa | 0 mm | - | 776 W/m² | - |
| 1777833626 | 16.11° C | 43% | 1008.6 hPa | 0 mm | - | 311 W/m² | - |
| 1777833322 | 17.78° C | 43% | 1008.6 hPa | 0 mm | - | 262 W/m² | - |
| 1777833019 | 17.22° C | 41% | 1008.8 hPa | 0 mm | - | 736 W/m² | - |
| 1777832718 | 16.67° C | 42% | 1009 hPa | 0 mm | - | 796 W/m² | - |
| 1777832415 | 16.67° C | 44% | 1008.8 hPa | 0 mm | - | 777 W/m² | - |
| 1777832112 | 16.11° C | 43% | 1008.7 hPa | 0 mm | - | 264 W/m² | - |
| 1777831808 | 16.67° C | 42% | 1009.1 hPa | 0 mm | - | 482 W/m² | - |
| 1777831506 | 16.67° C | 40% | 1009 hPa | 0 mm | - | 676 W/m² | - |
| 1777831203 | 16.67° C | 42% | 1009.1 hPa | 0 mm | - | 768 W/m² | - |
| 1777830900 | 16.67° C | 41% | 1009.1 hPa | 0 mm | - | 736 W/m² | - |
| 1777830596 | 16.11° C | 42% | 1009.3 hPa | 0 mm | - | 358 W/m² | - |
* Rain latest hour (hover to see other rain measurements)
** Current wind speed in m/s (hover to see current wind gust speed)